This demonstration page uses our WeatherBlox Daily Observations layout. Learn more.

Left ArrowRight Arrow

39.51506, -84.39828

Hourly Observations for June 24, 2018

Temp ( °F °C ) Dew Point ( °F °C ) Humidity (%) Winds ( mph kmh ) Pressure ( in mb ) Visibility ( mi km ) Precip ( " mm )
12:15 am 00:15 Partly Cloudy 67 19.5 66 19.1 98 98 N N/A 29.83 1010 10 16 N/A
12:35 am 00:35 Mostly Cloudy 67 19.2 66 18.8 98 98 N N/A 29.83 1010 10 16 N/A
12:55 am 00:55 Clear 66 19 65 18.6 98 98 WSW 3 6 29.83 1010 10 16 N/A
1:15 am 01:15 Partly Cloudy 66 18.7 65 18.3 98 98 SW 5 7 29.85 1011 10 16 N/A
1:35 am 01:35 Clear 66 18.9 65 18.5 98 98 SW 3 6 29.85 1011 10 16 N/A
1:55 am 01:55 Clear 66 18.8 65 18.4 98 98 N N/A 29.85 1011 10 16 N/A
2:15 am 02:15 Clear 66 18.7 65 18.1 96 96 N N/A 29.85 1011 10 16 N/A
2:35 am 02:35 Clear with Mist and Fog 65 18.6 65 18.3 98 98 N N/A 29.83 1010 7 11 N/A
2:55 am 02:55 Partly Cloudy 66 18.8 65 18.6 99 99 N N/A 29.85 1011 7 11 N/A
3:15 am 03:15 Mostly Cloudy 67 19.2 65 18.3 95 95 S 3 6 29.85 1011 10 16 N/A
3:35 am 03:35 Mostly Cloudy 66 18.9 65 18.2 96 96 N N/A 29.85 1011 10 16 N/A
3:55 am 03:55 Cloudy 66 18.8 65 18.3 97 97 N N/A 29.83 1010 10 16 N/A
4:15 am 04:15 Cloudy 65 18.6 65 18.3 98 98 N N/A 29.85 1011 7 11 N/A
4:35 am 04:35 Clear 66 18.7 65 18.1 96 96 SSW 6 9 29.85 1011 10 16 N/A
4:55 am 04:55 Clear 65 18.5 64 17.9 96 96 SW 3 6 29.85 1011 10 16 N/A
5:15 am 05:15 Clear 65 18.4 64 18 98 98 N N/A 29.85 1011 7 11 N/A
5:35 am 05:35 Clear 64 18 64 17.6 98 98 N N/A 29.85 1011 7 11 N/A
5:55 am 05:55 Clear 65 18.4 64 17.7 96 96 SW 3 6 29.85 1011 10 16 N/A
6:15 am 06:15 Sunny with Mist and Fog 64 17.9 63 17.4 97 97 N N/A 29.85 1011 7 11 N/A
6:35 am 06:35 Sunny with Mist and Fog 64 17.5 63 17.2 98 98 SSW 3 6 29.88 1012 3 5 N/A
6:55 am 06:55 Sunny with Mist and Fog 64 17.7 64 17.5 99 99 SSW 3 6 29.88 1012 4 6 N/A
7:15 am 07:15 Sunny with Mist and Fog 66 18.9 65 18.5 98 98 N N/A 29.88 1012 5 8 N/A
7:35 am 07:35 Sunny 67 19.4 65 18.6 95 95 N N/A 29.88 1012 7 11 N/A
7:55 am 07:55 Sunny 68 20 66 18.8 93 93 N N/A 29.88 1012 10 16 N/A
8:15 am 08:15 Sunny 69 20.8 66 19 90 90 N N/A 29.88 1012 10 16 N/A
8:35 am 08:35 Sunny 71 21.4 67 19.3 88 88 SW 3 6 29.88 1012 10 16 N/A
8:55 am 08:55 Sunny 72 22.4 66 19.1 82 82 N N/A 29.88 1012 10 16 N/A
9:15 am 09:15 Cloudy 73 23 67 19.3 80 80 WNW 6 9 29.88 1012 10 16 N/A
9:35 am 09:35 Mostly Cloudy 75 23.9 67 19.5 76 76 W 6 9 29.91 1013 10 16 N/A
9:55 am 09:55 Mostly Cloudy 75 23.8 67 19.3 76 76 WNW 7 11 29.91 1013 10 16 N/A
10:15 am 10:15 Partly Cloudy 75 24.1 67 19.3 75 75 NW 6 9 29.91 1013 10 16 N/A
10:35 am 10:35 Partly Cloudy 76 24.7 66 19.1 71 71 WSW 8 13 29.91 1013 10 16 N/A
10:55 am 10:55 Mostly Cloudy 76 24.3 66 18.7 71 71 W 6 9 29.91 1013 10 16 N/A
11:15 am 11:15 Partly Cloudy 78 25.5 66 19 67 67 WNW 9 15 29.94 1014 10 16 N/A
11:35 am 11:35 Mostly Cloudy 78 25.3 66 18.7 67 67 W 12 19 29.94 1014 10 16 N/A
11:55 am 11:55 Partly Cloudy 79 26 66 18.9 65 65 W 9 15 29.94 1014 10 16 N/A
12:15 pm 12:15 Mostly Cloudy 79 26 66 18.7 64 64 WNW 9 15 29.94 1014 10 16 N/A
12:35 pm 12:35 Mostly Cloudy 79 26.1 67 19.2 66 66 W 7 11 29.94 1014 10 16 N/A
12:55 pm 12:55 Mostly Cloudy 79 26.3 66 18.9 64 64 NW 9 15 29.94 1014 10 16 N/A
1:15 pm 13:15 Partly Cloudy 79 26.2 64 17.7 60 60 WNW 8 13 29.94 1014 10 16 N/A
1:35 pm 13:35 Partly Cloudy 82 27.5 66 19 60 60 W 10 17 29.94 1014 10 16 N/A
1:55 pm 13:55 Mostly Cloudy 81 27.2 66 18.9 61 61 W 7 11 29.94 1014 10 16 N/A
2:15 pm 14:15 Mostly Cloudy 80 26.7 65 18.1 59 59 SW 8 13 29.94 1014 10 16 N/A
2:35 pm 14:35 Mostly Cloudy 82 27.6 66 19 59 59 W 6 9 29.91 1013 10 16 N/A
2:55 pm 14:55 Partly Cloudy 81 27.2 65 18.6 59 59 WNW 6 9 29.94 1014 10 16 N/A
3:15 pm 15:15 Mostly Cloudy 81 27 66 19 62 62 WNW 7 11 29.94 1014 10 16 N/A
3:35 pm 15:35 Partly Cloudy 83 28.2 66 19 57 57 WNW 8 13 29.91 1013 10 16 N/A
3:55 pm 15:55 Cloudy 82 27.8 66 18.8 58 58 NNW 6 9 29.91 1013 10 16 N/A
4:15 pm 16:15 Partly Cloudy 83 28.1 66 19 58 58 N 8 13 29.91 1013 10 16 N/A
4:35 pm 16:35 Partly Cloudy 80 26.7 65 18.5 61 61 N 6 9 29.94 1014 10 16 N/A
4:55 pm 16:55 Partly Cloudy 83 28.4 65 18.1 54 54 NW 7 11 29.91 1013 10 16 N/A
5:15 pm 17:15 Sunny 83 28.3 64 17.6 52 52 N 8 13 29.91 1013 10 16 N/A
5:35 pm 17:35 Sunny 82 27.7 64 17.7 55 55 WNW 7 11 29.91 1013 10 16 N/A
5:55 pm 17:55 Sunny 83 28.4 65 18.2 54 54 NW 6 9 29.91 1013 10 16 N/A
6:15 pm 18:15 Partly Cloudy 83 28.3 62 16.9 50 50 NNW 7 11 29.91 1013 10 16 N/A
6:35 pm 18:35 Partly Cloudy 83 28.3 62 16.5 49 49 NNW 6 9 29.91 1013 10 16 N/A
6:55 pm 18:55 Sunny 82 27.9 61 16.1 49 49 NNW 6 9 29.91 1013 10 16 N/A
7:15 pm 19:15 Sunny 82 27.7 60 15.6 48 48 NW 5 7 29.91 1013 10 16 N/A
7:35 pm 19:35 Sunny 80 26.8 59 15.1 49 49 NW 3 6 29.94 1014 10 16 N/A
7:55 pm 19:55 Sunny 80 26.5 62 16.4 54 54 N N/A 29.94 1014 10 16 N/A
8:15 pm 20:15 Sunny 76 24.6 66 18.8 70 70 N N/A 29.94 1014 10 16 N/A
8:35 pm 20:35 Sunny 74 23.2 67 19.4 79 79 N N/A 29.94 1014 10 16 N/A
8:55 pm 20:55 Sunny 72 22 67 19.4 85 85 N 3 6 29.94 1014 10 16 N/A
9:15 pm 21:15 Clear 71 21.6 66 18.8 84 84 N N/A 29.94 1014 10 16 N/A
9:35 pm 21:35 Clear 70 21.2 66 18.8 86 86 N N/A 29.97 1015 10 16 N/A
9:55 pm 21:55 Clear 69 20.4 66 19 92 92 N N/A 29.97 1015 10 16 N/A
10:15 pm 22:15 Clear 68 19.9 66 18.9 94 94 N N/A 30.00 1016 10 16 N/A
10:35 pm 22:35 Clear 68 20.1 66 18.7 92 92 N N/A 30.00 1016 10 16 N/A
10:55 pm 22:55 Clear 67 19.5 65 18.2 92 92 N 5 7 30.00 1016 10 16 N/A
11:15 pm 23:15 Clear 67 19.7 64 18 90 90 NNE 3 6 30.00 1016 10 16 N/A
11:35 pm 23:35 Clear 67 19.3 64 17.9 92 92 NNE 3 6 30.00 1016 10 16 N/A
11:55 pm 23:55 Clear 66 18.9 64 17.7 93 93 NNE 3 6 30.00 1016 10 16 N/A

Powered by AerisWeather